| time (UTC) | temp F | wind direction | speed knots | gust knots | rain 1hr in | rain 24hr in | rain mn in | humidity % | barometer mb |
| 20260903202537 | 86 | 179 | 6.1 | 15.6 | 0.00 | 0.00 | 0.00 | 12 | 1016.5 |
| 20260903202030 | 86 | 96 | 5.2 | 13.9 | 0.00 | 0.00 | 0.00 | 11 | 1016.5 |
| 20260903201017 | 86 | 209 | 6.1 | 19.1 | 0.00 | 0.00 | 0.00 | 9 | 1016.6 |
| 20260903200511 | 86 | 153 | 5.2 | 15.6 | 0.00 | 0.00 | 0.00 | 8 | 1016.7 |
| 20260903200005 | 87 | 146 | 4.3 | 13.9 | 0.00 | 0.00 | 0.00 | 8 | 1016.7 |
| 20260903194954 | 86 | 261 | 6.1 | 14.8 | 0.00 | 0.00 | 0.00 | 5 | 1016.9 |
| 20260903194447 | 85 | 245 | 7.0 | 14.8 | 0.00 | 0.00 | 0.00 | 5 | 1017.0 |
| 20260903193942 | 85 | 168 | 6.1 | 15.6 | 0.00 | 0.00 | 0.00 | 3 | 1016.9 |
| 20260903193435 | 85 | 252 | 5.2 | 15.6 | 0.00 | 0.00 | 0.00 | 2 | 1017.0 |
| 20260903192929 | 85 | 198 | 4.3 | 13.9 | 0.00 | 0.00 | 0.00 | 1 | 1016.9 |
| 20260903191411 | 84 | 149 | 6.1 | 15.6 | 0.00 | 0.00 | 0.00 | 2 | 1017.3 |
| 20260903190905 | 83 | 172 | 7.0 | 16.5 | 0.00 | 0.00 | 0.00 | 4 | 1017.2 |
| 20260903190358 | 83 | 211 | 7.0 | 16.5 | 0.00 | 0.00 | 0.00 | 4 | 1017.3 |
| 20260903185853 | 83 | 157 | 7.0 | 20.0 | 0.00 | 0.00 | 0.00 | 6 | 1017.5 |
| 20260903185347 | 83 | 132 | 6.1 | 20.0 | 0.00 | 0.00 | 0.00 | 6 | 1017.5 |
| 20260903184841 | 83 | 98 | 5.2 | 12.2 | 0.00 | 0.00 | 0.00 | 5 | 1017.6 |
| 20260903184335 | 83 | 150 | 5.2 | 19.1 | 0.00 | 0.00 | 0.00 | 5 | 1017.5 |
| 20260903183829 | 82 | 193 | 5.2 | 19.1 | 0.00 | 0.00 | 0.00 | 8 | 1017.6 |
| 20260903183323 | 82 | 166 | 4.3 | 14.8 | 0.00 | 0.00 | 0.00 | 7 | 1017.6 |
| 20260903182817 | 82 | 107 | 5.2 | 13.9 | 0.00 | 0.00 | 0.00 | 8 | 1017.6 |
| 20260903182311 | 82 | 153 | 5.2 | 16.5 | 0.00 | 0.00 | 0.00 | 9 | 1017.8 |
| 20260903181808 | 82 | 154 | 4.3 | 16.5 | 0.00 | 0.00 | 0.00 | 10 | 1017.7 |
| 20260903181259 | 81 | 89 | 5.2 | 14.8 | 0.00 | 0.00 | 0.00 | 10 | 1017.8 |
| 20260903180753 | 81 | 129 | 5.2 | 14.8 | 0.00 | 0.00 | 0.00 | 9 | 1017.7 |
| 20260903175741 | 81 | 252 | 5.2 | 13.9 | 0.00 | 0.00 | 0.00 | 10 | 1017.8 |
| 20260903174730 | 81 | 200 | 5.2 | 13.0 | 0.00 | 0.00 | 0.00 | 10 | 1017.8 |
| 20260903174223 | 80 | 209 | 6.1 | 13.0 | 0.00 | 0.00 | 0.00 | 10 | 1017.8 |
| 20260903173717 | 80 | 96 | 5.2 | 12.2 | 0.00 | 0.00 | 0.00 | 10 | 1017.8 |
| 20260903173211 | 80 | 82 | 4.3 | 12.2 | 0.00 | 0.00 | 0.00 | 9 | 1017.8 |
| 20260903172705 | 80 | 208 | 6.1 | 15.6 | 0.00 | 0.00 | 0.00 | 10 | 1018.0 |
| 20260903172159 | 80 | 53 | 6.1 | 15.6 | 0.00 | 0.00 | 0.00 | 9 | 1018.0 |
| 20260903171653 | 80 | 145 | 6.1 | 14.8 | 0.00 | 0.00 | 0.00 | 9 | 1018.0 |
| 20260903170641 | 80 | 114 | 4.3 | 14.8 | 0.00 | 0.00 | 0.00 | 9 | 1017.8 |
| 20260903170135 | 80 | 169 | 5.2 | 12.2 | 0.00 | 0.00 | 0.00 | 9 | 1017.8 |
| 20260903165629 | 79 | 165 | 6.1 | 13.0 | 0.00 | 0.00 | 0.00 | 9 | 1017.8 |
| 20260903165123 | 79 | 122 | 5.2 | 14.8 | 0.00 | 0.00 | 0.00 | 10 | 1017.8 |
| 20260903164111 | 79 | 101 | 5.2 | 14.8 | 0.00 | 0.00 | 0.00 | 10 | 1017.8 |
| 20260903163605 | 78 | 258 | 6.1 | 13.0 | 0.00 | 0.00 | 0.00 | 10 | 1017.8 |
| 20260903162553 | 78 | 148 | 6.1 | 14.8 | 0.00 | 0.00 | 0.00 | 10 | 1017.8 |
| 20260903161541 | 78 | 160 | 6.1 | 17.4 | 0.00 | 0.00 | 0.00 | 10 | 1018.0 |
| 20260903161035 | 77 | 120 | 4.3 | 17.4 | 0.00 | 0.00 | 0.00 | 10 | 1017.8 |
| 20260903160528 | 78 | 178 | 3.5 | 10.4 | 0.00 | 0.00 | 0.00 | 10 | 1018.0 |
| 20260903160023 | 77 | 203 | 4.3 | 15.6 | 0.00 | 0.00 | 0.00 | 10 | 1017.8 |
| 20260903155517 | 77 | 353 | 5.2 | 15.6 | 0.00 | 0.00 | 0.00 | 10 | 1017.8 |
| 20260903155011 | 76 | 119 | 4.3 | 11.3 | 0.00 | 0.00 | 0.00 | 12 | 1017.7 |
| 20260903154508 | 76 | 87 | 5.2 | 15.6 | 0.00 | 0.00 | 0.00 | 12 | 1017.7 |
| 20260903153508 | 75 | 145 | 4.3 | 14.8 | 0.00 | 0.00 | 0.00 | 12 | 1017.7 |
| 20260903153008 | 75 | 251 | 3.5 | 12.2 | 0.00 | 0.00 | 0.00 | 13 | 1017.7 |
| 20260903152508 | 75 | 323 | 2.6 | 13.9 | 0.00 | 0.00 | 0.00 | 13 | 1017.7 |
| 20260903152010 | 74 | 47 | 3.5 | 13.9 | 0.00 | 0.00 | 0.00 | 13 | 1017.8 |
| 20260903151506 | 74 | 95 | 2.6 | 11.3 | 0.00 | 0.00 | 0.00 | 12 | 1017.7 |
| 20260903151007 | 74 | 294 | 1.7 | 11.3 | 0.00 | 0.00 | 0.00 | 12 | 1017.8 |
| 20260903150507 | 74 | 130 | 1.7 | 7.0 | 0.00 | 0.00 | 0.00 | 11 | 1018.0 |
| 20260903150008 | 73 | 349 | 1.7 | 7.0 | 0.00 | 0.00 | 0.00 | 11 | 1017.8 |
| 20260903144505 | 72 | 225 | 3.5 | 11.3 | 0.00 | 0.00 | 0.00 | 10 | 1018.0 |
| 20260903144002 | 72 | 120 | 3.5 | 10.4 | 0.00 | 0.00 | 0.00 | 11 | 1017.8 |
| 20260903143502 | 72 | 0.0 | 0.0 | 0.00 | 0.00 | 0.00 | 11 | 1017.7 | |
| 20260903143005 | 72 | 0.0 | 0.0 | 0.00 | 0.00 | 0.00 | 10 | 1017.5 |